,,PressureMeas_1m,,PRMeasQMR101_1,,RHStat155_1m_1,,SRMeasQMS101R_1m,,TAStat155_1m_1,,GenWind_1,,GenWind_1,
2017-08-21, 00:00:06,VALID,916.493,VALID,0.0,VALID,98.072,VALID,0.022,VALID,20.823,VALID,113.0,VALID,1.495,
2017-08-21, 00:01:06,VALID,916.469,VALID,0.0,VALID,98.093,VALID,0.021,VALID,20.818,VALID,110.0,VALID,1.379,
2017-08-21, 00:02:06,VALID,916.447,VALID,0.0,VALID,98.101,VALID,0.025,VALID,20.808,VALID,110.0,VALID,1.507,
2017-08-21, 00:03:06,VALID,916.429,VALID,0.0,VALID,98.094,VALID,0.022,VALID,20.795,VALID,122.0,VALID,1.53,
2017-08-21, 00:04:06,VALID,916.398,VALID,0.0,VALID,98.108,VALID,0.027,VALID,20.785,VALID,127.0,VALID,1.38,
2017-08-21, 00:05:06,VALID,916.361,VALID,0.0,VALID,98.089,VALID,0.034,VALID,20.755,VALID,138.0,VALID,1.396,
2017-08-21, 00:06:06,VALID,916.345,VALID,0.0,VALID,98.074,VALID,0.029,VALID,20.742,VALID,139.0,VALID,1.736,
2017-08-21, 00:07:06,VALID,916.328,VALID,0.0,VALID,98.045,VALID,0.029,VALID,20.7,VALID,142.0,VALID,1.563,
2017-08-21, 00:08:06,VALID,916.311,VALID,0.0,VALID,98.073,VALID,0.031,VALID,20.696,VALID,144.0,VALID,1.778,
2017-08-21, 00:09:06,VALID,916.312,VALID,0.0,VALID,98.158,VALID,0.024,VALID,20.729,VALID,143.0,VALID,1.718,
2017-08-21, 00:10:06,VALID,916.29,VALID,0.0,VALID,98.16,VALID,0.006,VALID,20.721,VALID,133.0,VALID,1.457,
2017-08-21, 00:11:06,VALID,916.269,VALID,0.0,VALID,98.143,VALID,0.058,VALID,20.708,VALID,130.0,VALID,1.378,
2017-08-21, 00:12:06,VALID,916.234,VALID,0.0,VALID,98.12,VALID,0.055,VALID,20.696,VALID,127.0,VALID,1.422,
2017-08-21, 00:13:06,VALID,916.215,VALID,0.0,VALID,98.13,VALID,0.063,VALID,20.681,VALID,131.0,VALID,1.354,
2017-08-21, 00:14:06,VALID,916.194,VALID,0.0,VALID,98.107,VALID,0.062,VALID,20.685,VALID,125.0,VALID,1.573,
2017-08-21, 00:15:06,VALID,916.185,VALID,0.0,VALID,98.16,VALID,0.074,VALID,20.715,VALID,124.0,VALID,1.318,
2017-08-21, 00:16:06,VALID,916.171,VALID,0.0,VALID,98.138,VALID,0.068,VALID,20.698,VALID,114.0,VALID,1.35,
2017-08-21, 00:17:06,VALID,916.158,VALID,0.0,VALID,98.049,VALID,0.067,VALID,20.658,VALID,120.0,VALID,1.317,
2017-08-21, 00:18:06,VALID,916.132,VALID,0.0,VALID,98.022,VALID,0.071,VALID,20.64,VALID,129.0,VALID,1.08,
2017-08-21, 00:19:06,VALID,916.107,VALID,0.0,VALID,98.05,VALID,0.06,VALID,20.648,VALID,133.0,VALID,1.425,
2017-08-21, 00:20:06,VALID,916.11,VALID,0.0,VALID,98.076,VALID,0.062,VALID,20.668,VALID,131.0,VALID,1.048,
2017-08-21, 00:21:06,VALID,916.127,VALID,0.0,VALID,98.083,VALID,0.054,VALID,20.676,VALID,125.0,VALID,0.683,
2017-08-21, 00:22:06,VALID,916.141,VALID,0.0,VALID,97.996,VALID,0.062,VALID,20.628,VALID,98.0,VALID,0.827,
2017-08-21, 00:23:06,VALID,916.145,VALID,0.0,VALID,97.928,VALID,0.046,VALID,20.601,VALID,75.0,VALID,0.536,
2017-08-21, 00:24:06,VALID,916.119,VALID,0.0,VALID,97.898,VALID,0.067,VALID,20.598,VALID,98.0,VALID,0.472,
2017-08-21, 00:25:06,VALID,916.091,VALID,0.0,VALID,97.9,VALID,0.04,VALID,20.589,VALID,77.0,VALID,0.565,
2017-08-21, 00:26:06,VALID,916.049,VALID,0.0,VALID,97.811,VALID,-0.012,VALID,20.566,VALID,71.0,VALID,0.986,
2017-08-21, 00:27:06,VALID,916.015,VALID,0.0,VALID,97.817,VALID,0.002,VALID,20.566,VALID,80.0,VALID,1.324,
2017-08-21, 00:28:06,VALID,915.997,VALID,0.0,VALID,97.91,VALID,-0.009,VALID,20.589,VALID,96.0,VALID,1.01,
2017-08-21, 00:29:06,VALID,915.97,VALID,0.0,VALID,97.814,VALID,-0.003,VALID,20.531,VALID,88.0,VALID,1.244,
2017-08-21, 00:30:06,VALID,915.941,VALID,0.0,VALID,97.833,VALID,-0.015,VALID,20.507,VALID,85.0,VALID,1.141,
2017-08-21, 00:31:06,VALID,915.921,VALID,0.0,VALID,97.935,VALID,-0.012,VALID,20.523,VALID,85.0,VALID,1.259,
2017-08-21, 00:32:06,VALID,915.895,VALID,0.0,VALID,98.038,VALID,-0.017,VALID,20.548,VALID,88.0,VALID,1.348,
2017-08-21, 00:33:06,VALID,915.876,VALID,0.0,VALID,98.039,VALID,-0.025,VALID,20.524,VALID,88.0,VALID,1.297,
2017-08-21, 00:34:06,VALID,915.866,VALID,0.0,VALID,98.071,VALID,-0.021,VALID,20.516,VALID,89.0,VALID,1.444,
2017-08-21, 00:35:06,VALID,915.856,VALID,0.0,VALID,98.069,VALID,-0.004,VALID,20.508,VALID,91.0,VALID,1.268,
2017-08-21, 00:36:06,VALID,915.85,VALID,0.0,VALID,98.058,VALID,0.012,VALID,20.507,VALID,89.0,VALID,1.318,
2017-08-21, 00:37:06,VALID,915.851,VALID,0.0,VALID,98.112,VALID,-0.008,VALID,20.567,VALID,88.0,VALID,1.594,
2017-08-21, 00:38:06,VALID,915.848,VALID,0.0,VALID,97.987,VALID,-0.002,VALID,20.633,VALID,86.0,VALID,1.369,
2017-08-21, 00:39:06,VALID,915.848,VALID,0.0,VALID,97.617,VALID,-0.02,VALID,20.713,VALID,86.0,VALID,1.198,
2017-08-21, 00:40:06,VALID,915.853,VALID,0.0,VALID,97.024,VALID,-0.017,VALID,20.796,VALID,97.0,VALID,1.184,
2017-08-21, 00:41:06,VALID,915.841,VALID,0.0,VALID,96.244,VALID,-0.009,VALID,20.875,VALID,105.0,VALID,1.51,
2017-08-21, 00:42:06,VALID,915.829,VALID,0.0,VALID,95.533,VALID,-0.007,VALID,20.925,VALID,120.0,VALID,1.518,
2017-08-21, 00:43:06,VALID,915.813,VALID,0.0,VALID,95.335,VALID,0.01,VALID,20.883,VALID,118.0,VALID,1.368,
2017-08-21, 00:44:06,VALID,915.78,VALID,0.0,VALID,95.197,VALID,0.02,VALID,20.852,VALID,129.0,VALID,1.377,
2017-08-21, 00:45:06,VALID,915.789,VALID,0.0,VALID,94.876,VALID,0.022,VALID,20.825,VALID,136.0,VALID,1.518,
2017-08-21, 00:46:06,VALID,915.79,VALID,0.0,VALID,95.277,VALID,0.013,VALID,20.839,VALID,141.0,VALID,1.482,
2017-08-21, 00:47:06,VALID,915.794,VALID,0.0,VALID,94.903,VALID,0.021,VALID,20.865,VALID,161.0,VALID,1.354,
2017-08-21, 00:48:06,VALID,915.808,VALID,0.0,VALID,94.71,VALID,0.012,VALID,20.874,VALID,160.0,VALID,0.748,
2017-08-21, 00:49:06,VALID,915.822,VALID,0.0,VALID,94.66,VALID,0.016,VALID,20.855,VALID,172.0,VALID,0.286,
2017-08-21, 00:50:06,VALID,915.815,VALID,0.0,VALID,94.824,VALID,0.011,VALID,20.833,VALID,232.0,VALID,0.638,
2017-08-21, 00:51:06,VALID,915.827,VALID,0.0,VALID,95.138,VALID,0.0,VALID,20.775,VALID,264.0,VALID,0.711,
2017-08-21, 00:52:06,VALID,915.828,VALID,0.0,VALID,95.579,VALID,0.013,VALID,20.719,VALID,286.0,VALID,1.054,
2017-08-21, 00:53:06,VALID,915.836,VALID,0.0,VALID,96.226,VALID,0.017,VALID,20.656,VALID,286.0,VALID,1.402,
2017-08-21, 00:54:06,VALID,915.822,VALID,0.0,VALID,96.9,VALID,0.009,VALID,20.618,VALID,288.0,VALID,1.413,
2017-08-21, 00:55:06,VALID,915.826,VALID,0.0,VALID,97.368,VALID,0.01,VALID,20.598,VALID,295.0,VALID,1.063,
2017-08-21, 00:56:06,VALID,915.843,VALID,0.0,VALID,97.608,VALID,-0.003,VALID,20.585,VALID,277.0,VALID,0.813,
2017-08-21, 00:57:06,VALID,915.861,VALID,0.0,VALID,97.728,VALID,-0.012,VALID,20.562,VALID,239.0,VALID,0.457,
2017-08-21, 00:58:06,VALID,915.875,VALID,0.0,VALID,97.763,VALID,-0.016,VALID,20.522,VALID,239.0,VALID,0.517,
2017-08-21, 00:59:06,VALID,915.873,VALID,0.0,VALID,97.867,VALID,-0.003,VALID,20.507,VALID,312.0,VALID,0.375,
2017-08-21, 01:00:06,VALID,915.863,VALID,0.0,VALID,97.954,VALID,-0.005,VALID,20.511,VALID,324.0,VALID,0.059,
2017-08-21, 01:01:06,VALID,915.82,VALID,0.0,VALID,97.957,VALID,0.008,VALID,20.49,VALID,14.0,VALID,0.263,
2017-08-21, 01:02:06,VALID,915.796,VALID,0.0,VALID,97.907,VALID,0.002,VALID,20.439,VALID,36.0,VALID,0.171,
2017-08-21, 01:03:06,VALID,915.764,VALID,0.0,VALID,97.831,VALID,-0.013,VALID,20.372,VALID,124.0,VALID,0.495,
2017-08-21, 01:04:06,VALID,915.743,VALID,0.0,VALID,97.753,VALID,-0.004,VALID,20.299,VALID,152.0,VALID,0.798,
2017-08-21, 01:05:06,VALID,915.732,VALID,0.0,VALID,97.744,VALID,0.005,VALID,20.241,VALID,153.0,VALID,0.857,
2017-08-21, 01:06:06,VALID,915.732,VALID,0.0,VALID,97.898,VALID,0.01,VALID,20.238,VALID,149.0,VALID,0.742,
2017-08-21, 01:07:06,VALID,915.733,VALID,0.0,VALID,97.867,VALID,0.006,VALID,20.164,VALID,125.0,VALID,0.643,
2017-08-21, 01:08:06,VALID,915.719,VALID,0.0,VALID,97.749,VALID,0.003,VALID,20.053,VALID,138.0,VALID,0.76,
2017-08-21, 01:09:06,VALID,915.724,VALID,0.0,VALID,97.729,VALID,0.013,VALID,19.981,VALID,126.0,VALID,0.927,
2017-08-21, 01:10:06,VALID,915.711,VALID,0.0,VALID,97.688,VALID,0.008,VALID,19.897,VALID,123.0,VALID,1.141,
2017-08-21, 01:11:06,VALID,915.693,VALID,0.0,VALID,97.832,VALID,0.012,VALID,19.884,VALID,123.0,VALID,1.074,
2017-08-21, 01:12:06,VALID,915.681,VALID,0.0,VALID,97.97,VALID,0.023,VALID,19.889,VALID,126.0,VALID,1.107,
2017-08-21, 01:13:06,VALID,915.66,VALID,0.0,VALID,98.067,VALID,0.016,VALID,19.889,VALID,131.0,VALID,0.746,
2017-08-21, 01:14:06,VALID,915.659,VALID,0.0,VALID,98.099,VALID,0.012,VALID,19.886,VALID,128.0,VALID,1.059,
2017-08-21, 01:15:06,VALID,915.661,VALID,0.0,VALID,98.176,VALID,0.035,VALID,19.895,VALID,111.0,VALID,1.079,
2017-08-21, 01:16:06,VALID,915.656,VALID,0.0,VALID,98.07,VALID,0.024,VALID,19.826,VALID,105.0,VALID,1.32,
2017-08-21, 01:17:06,VALID,915.632,VALID,0.0,VALID,98.148,VALID,0.037,VALID,19.872,VALID,109.0,VALID,1.531,
2017-08-21, 01:18:06,VALID,915.596,VALID,0.0,VALID,98.144,VALID,0.034,VALID,19.872,VALID,119.0,VALID,1.279,
2017-08-21, 01:19:06,VALID,915.546,VALID,0.0,VALID,98.125,VALID,0.032,VALID,19.885,VALID,116.0,VALID,1.293,
2017-08-21, 01:20:06,VALID,915.512,VALID,0.0,VALID,98.089,VALID,0.025,VALID,19.861,VALID,112.0,VALID,1.379,
2017-08-21, 01:21:06,VALID,915.485,VALID,0.0,VALID,98.163,VALID,0.03,VALID,19.882,VALID,128.0,VALID,1.041,
2017-08-21, 01:22:06,VALID,915.483,VALID,0.0,VALID,98.108,VALID,0.029,VALID,19.818,VALID,95.0,VALID,1.511,
2017-08-21, 01:23:06,VALID,915.495,VALID,0.0,VALID,98.204,VALID,0.031,VALID,19.871,VALID,104.0,VALID,1.746,
2017-08-21, 01:24:06,VALID,915.504,VALID,0.0,VALID,98.302,VALID,0.028,VALID,19.909,VALID,109.0,VALID,1.775,
2017-08-21, 01:25:06,VALID,915.512,VALID,0.0,VALID,98.398,VALID,0.023,VALID,19.981,VALID,115.0,VALID,1.738,
2017-08-21, 01:26:06,VALID,915.507,VALID,0.0,VALID,98.25,VALID,0.023,VALID,19.899,VALID,94.0,VALID,0.869,
2017-08-21, 01:27:06,VALID,915.509,VALID,0.0,VALID,98.245,VALID,-0.014,VALID,19.938,VALID,89.0,VALID,1.248,
2017-08-21, 01:28:06,VALID,915.524,VALID,0.0,VALID,98.331,VALID,-0.024,VALID,20.013,VALID,95.0,VALID,1.229,
2017-08-21, 01:29:06,VALID,915.545,VALID,0.0,VALID,98.235,VALID,-0.022,VALID,19.967,VALID,124.0,VALID,1.063,
2017-08-21, 01:30:06,VALID,915.542,VALID,0.0,VALID,98.097,VALID,-0.002,VALID,19.924,VALID,116.0,VALID,1.363,
2017-08-21, 01:31:06,VALID,915.53,VALID,0.0,VALID,98.115,VALID,-0.005,VALID,19.974,VALID,118.0,VALID,1.462,
2017-08-21, 01:32:06,VALID,915.515,VALID,0.0,VALID,97.906,VALID,-0.017,VALID,19.906,VALID,117.0,VALID,1.295,
2017-08-21, 01:33:06,VALID,915.487,VALID,0.0,VALID,97.666,VALID,-0.027,VALID,19.836,VALID,118.0,VALID,1.253,
2017-08-21, 01:34:06,VALID,915.447,VALID,0.0,VALID,97.751,VALID,-0.018,VALID,19.821,VALID,126.0,VALID,0.97,
2017-08-21, 01:35:06,VALID,915.438,VALID,0.0,VALID,97.832,VALID,-0.016,VALID,19.811,VALID,127.0,VALID,1.171,
2017-08-21, 01:36:06,VALID,915.393,VALID,0.0,VALID,97.868,VALID,-0.031,VALID,19.779,VALID,130.0,VALID,0.869,
2017-08-21, 01:37:06,VALID,915.387,VALID,0.0,VALID,98.039,VALID,-0.04,VALID,19.839,VALID,134.0,VALID,0.99,
2017-08-21, 01:38:06,VALID,915.366,VALID,0.0,VALID,98.164,VALID,-0.028,VALID,19.884,VALID,132.0,VALID,1.064,
2017-08-21, 01:39:06,VALID,915.362,VALID,0.0,VALID,98.242,VALID,-0.02,VALID,19.921,VALID,132.0,VALID,0.97,
2017-08-21, 01:40:06,VALID,915.334,VALID,0.0,VALID,98.316,VALID,-0.013,VALID,19.96,VALID,128.0,VALID,0.903,
2017-08-21, 01:41:06,VALID,915.331,VALID,0.0,VALID,98.347,VALID,0.004,VALID,19.997,VALID,125.0,VALID,1.067,
2017-08-21, 01:42:06,VALID,915.327,VALID,0.0,VALID,98.429,VALID,0.0,VALID,20.063,VALID,124.0,VALID,1.022,
2017-08-21, 01:43:06,VALID,915.329,VALID,0.0,VALID,98.318,VALID,0.009,VALID,20.004,VALID,105.0,VALID,0.993,
2017-08-21, 01:44:06,VALID,915.327,VALID,0.0,VALID,98.11,VALID,0.019,VALID,19.906,VALID,81.0,VALID,0.911,
2017-08-21, 01:45:06,VALID,915.324,VALID,0.0,VALID,97.927,VALID,0.022,VALID,19.841,VALID,76.0,VALID,0.432,
2017-08-21, 01:46:06,VALID,915.325,VALID,0.0,VALID,97.936,VALID,0.02,VALID,19.873,VALID,112.0,VALID,0.393,
2017-08-21, 01:47:06,VALID,915.312,VALID,0.0,VALID,97.775,VALID,0.002,VALID,19.926,VALID,119.0,VALID,0.319,
2017-08-21, 01:48:06,VALID,915.309,VALID,0.0,VALID,97.396,VALID,0.009,VALID,19.905,VALID,113.0,VALID,0.268,
2017-08-21, 01:49:06,VALID,915.305,VALID,0.0,VALID,96.982,VALID,0.026,VALID,19.872,VALID,104.0,VALID,0.576,
2017-08-21, 01:50:06,VALID,915.324,VALID,0.0,VALID,97.053,VALID,0.018,VALID,19.894,VALID,103.0,VALID,0.72,
2017-08-21, 01:51:06,VALID,915.323,VALID,0.0,VALID,96.793,VALID,0.031,VALID,19.961,VALID,113.0,VALID,0.76,
2017-08-21, 01:52:06,VALID,915.327,VALID,0.0,VALID,96.351,VALID,0.014,VALID,20.158,VALID,130.0,VALID,0.838,
2017-08-21, 01:53:06,VALID,915.304,VALID,0.0,VALID,95.878,VALID,0.018,VALID,20.289,VALID,128.0,VALID,0.702,
2017-08-21, 01:54:06,VALID,915.299,VALID,0.0,VALID,95.555,VALID,0.02,VALID,20.401,VALID,126.0,VALID,0.59,
2017-08-21, 01:55:06,VALID,915.283,VALID,0.0,VALID,94.98,VALID,0.023,VALID,20.434,VALID,124.0,VALID,0.536,
2017-08-21, 01:56:06,VALID,915.273,VALID,0.0,VALID,94.185,VALID,0.039,VALID,20.509,VALID,124.0,VALID,0.411,
2017-08-21, 01:57:06,VALID,915.244,VALID,0.0,VALID,93.874,VALID,0.05,VALID,20.514,VALID,114.0,VALID,0.429,
2017-08-21, 01:58:06,VALID,915.217,VALID,0.0,VALID,92.001,VALID,0.047,VALID,20.319,VALID,60.0,VALID,0.543,
2017-08-21, 01:59:06,VALID,915.204,VALID,0.0,VALID,93.415,VALID,0.029,VALID,20.089,VALID,58.0,VALID,0.519,
2017-08-21, 02:00:06,VALID,915.169,VALID,0.0,VALID,94.885,VALID,0.027,VALID,20.039,VALID,58.0,VALID,0.234,
2017-08-21, 02:01:06,VALID,915.17,VALID,0.0,VALID,95.314,VALID,0.038,VALID,20.082,VALID,58.0,VALID,0.0,
2017-08-21, 02:02:07,VALID,915.17,VALID,0.0,VALID,95.215,VALID,0.045,VALID,20.106,VALID,75.0,VALID,0.304,
2017-08-21, 02:03:07,VALID,915.184,VALID,0.0,VALID,94.101,VALID,0.054,VALID,19.978,VALID,126.0,VALID,0.566,
2017-08-21, 02:04:07,VALID,915.173,VALID,0.0,VALID,95.389,VALID,0.029,VALID,19.923,VALID,121.0,VALID,0.253,
2017-08-21, 02:05:07,VALID,915.168,VALID,0.0,VALID,95.73,VALID,0.041,VALID,19.917,VALID,129.0,VALID,0.051,
2017-08-21, 02:06:07,VALID,915.188,VALID,0.0,VALID,95.606,VALID,0.04,VALID,19.917,VALID,147.0,VALID,0.178,
2017-08-21, 02:07:07,VALID,915.183,VALID,0.0,VALID,94.89,VALID,0.05,VALID,19.863,VALID,104.0,VALID,0.736,
2017-08-21, 02:08:07,VALID,915.182,VALID,0.0,VALID,95.103,VALID,0.041,VALID,19.834,VALID,89.0,VALID,0.639,
2017-08-21, 02:09:07,VALID,915.17,VALID,0.0,VALID,95.357,VALID,0.044,VALID,19.918,VALID,94.0,VALID,0.363,
2017-08-21, 02:10:07,VALID,915.161,VALID,0.0,VALID,94.777,VALID,0.047,VALID,19.984,VALID,109.0,VALID,0.386,
2017-08-21, 02:11:07,VALID,915.162,VALID,0.0,VALID,94.412,VALID,0.03,VALID,20.1,VALID,124.0,VALID,0.526,
2017-08-21, 02:12:07,VALID,915.157,VALID,0.0,VALID,93.642,VALID,0.025,VALID,20.28,VALID,134.0,VALID,0.743,
2017-08-21, 02:13:07,VALID,915.144,VALID,0.0,VALID,93.56,VALID,0.011,VALID,20.432,VALID,141.0,VALID,0.658,
2017-08-21, 02:14:07,VALID,915.118,VALID,0.0,VALID,93.367,VALID,0.026,VALID,20.458,VALID,176.0,VALID,0.74,
2017-08-21, 02:15:07,VALID,915.105,VALID,0.0,VALID,93.464,VALID,0.019,VALID,20.405,VALID,159.0,VALID,0.665,
2017-08-21, 02:16:07,VALID,915.096,VALID,0.0,VALID,93.64,VALID,0.013,VALID,20.314,VALID,155.0,VALID,1.253,
2017-08-21, 02:17:07,VALID,915.096,VALID,0.0,VALID,93.578,VALID,0.026,VALID,20.339,VALID,164.0,VALID,0.853,
2017-08-21, 02:18:07,VALID,915.081,VALID,0.0,VALID,93.018,VALID,0.013,VALID,20.375,VALID,156.0,VALID,0.305,
2017-08-21, 02:19:07,VALID,915.094,VALID,0.0,VALID,92.372,VALID,0.028,VALID,20.363,VALID,158.0,VALID,0.855,
2017-08-21, 02:20:07,VALID,915.106,VALID,0.0,VALID,90.437,VALID,0.029,VALID,20.498,VALID,119.0,VALID,0.723,
2017-08-21, 02:21:07,VALID,915.129,VALID,0.0,VALID,91.43,VALID,0.03,VALID,20.403,VALID,119.0,VALID,0.768,
2017-08-21, 02:22:07,VALID,915.128,VALID,0.0,VALID,92.192,VALID,0.024,VALID,20.214,VALID,139.0,VALID,0.656,
2017-08-21, 02:23:07,VALID,915.125,VALID,0.0,VALID,92.216,VALID,0.03,VALID,20.251,VALID,160.0,VALID,0.939,
2017-08-21, 02:24:07,VALID,915.133,VALID,0.0,VALID,91.695,VALID,0.022,VALID,20.357,VALID,156.0,VALID,0.407,
2017-08-21, 02:25:07,VALID,915.139,VALID,0.0,VALID,91.11,VALID,0.014,VALID,20.41,VALID,133.0,VALID,0.743,
2017-08-21, 02:26:07,VALID,915.133,VALID,0.0,VALID,90.601,VALID,0.03,VALID,20.349,VALID,94.0,VALID,0.766,
2017-08-21, 02:27:07,VALID,915.141,VALID,0.0,VALID,91.911,VALID,0.022,VALID,20.202,VALID,98.0,VALID,0.579,
2017-08-21, 02:28:07,VALID,915.14,VALID,0.0,VALID,92.581,VALID,0.012,VALID,20.166,VALID,108.0,VALID,0.348,
2017-08-21, 02:29:07,VALID,915.133,VALID,0.0,VALID,91.953,VALID,0.029,VALID,20.2,VALID,117.0,VALID,0.84,
2017-08-21, 02:30:07,VALID,915.133,VALID,0.0,VALID,90.808,VALID,0.036,VALID,20.328,VALID,105.0,VALID,0.904,
2017-08-21, 02:31:07,VALID,915.129,VALID,0.0,VALID,90.241,VALID,0.011,VALID,20.377,VALID,106.0,VALID,1.068,
2017-08-21, 02:32:07,VALID,915.141,VALID,0.0,VALID,90.108,VALID,0.036,VALID,20.396,VALID,104.0,VALID,1.099,
2017-08-21, 02:33:07,VALID,915.145,VALID,0.0,VALID,89.945,VALID,0.02,VALID,20.428,VALID,106.0,VALID,1.539,
2017-08-21, 02:34:07,VALID,915.144,VALID,0.0,VALID,89.396,VALID,0.021,VALID,20.474,VALID,115.0,VALID,1.562,
2017-08-21, 02:35:07,VALID,915.126,VALID,0.0,VALID,89.672,VALID,0.023,VALID,20.27,VALID,119.0,VALID,1.257,
2017-08-21, 02:36:07,VALID,915.117,VALID,0.0,VALID,91.183,VALID,0.018,VALID,20.019,VALID,108.0,VALID,1.127,
2017-08-21, 02:37:07,VALID,915.096,VALID,0.0,VALID,93.604,VALID,0.034,VALID,19.868,VALID,121.0,VALID,1.053,
2017-08-21, 02:38:07,VALID,915.087,VALID,0.0,VALID,94.637,VALID,0.032,VALID,19.718,VALID,124.0,VALID,0.845,
2017-08-21, 02:39:07,VALID,915.092,VALID,0.0,VALID,95.074,VALID,0.009,VALID,19.634,VALID,111.0,VALID,0.87,
2017-08-21, 02:40:07,VALID,915.097,VALID,0.0,VALID,95.554,VALID,0.03,VALID,19.534,VALID,115.0,VALID,0.562,
2017-08-21, 02:41:07,VALID,915.113,VALID,0.0,VALID,95.83,VALID,0.028,VALID,19.455,VALID,124.0,VALID,0.279,
2017-08-21, 02:42:07,VALID,915.109,VALID,0.0,VALID,96.192,VALID,0.031,VALID,19.414,VALID,119.0,VALID,0.55,
2017-08-21, 02:43:07,VALID,915.093,VALID,0.0,VALID,96.303,VALID,0.041,VALID,19.336,VALID,96.0,VALID,0.87,
2017-08-21, 02:44:07,VALID,915.057,VALID,0.0,VALID,96.704,VALID,0.032,VALID,19.303,VALID,79.0,VALID,1.781,
2017-08-21, 02:45:07,VALID,915.031,VALID,0.0,VALID,97.5,VALID,0.041,VALID,19.398,VALID,115.0,VALID,1.03,
2017-08-21, 02:46:07,VALID,914.985,VALID,0.0,VALID,97.724,VALID,0.033,VALID,19.406,VALID,123.0,VALID,1.024,
2017-08-21, 02:47:07,VALID,914.935,VALID,0.0,VALID,97.841,VALID,0.045,VALID,19.409,VALID,121.0,VALID,1.093,
2017-08-21, 02:48:07,VALID,914.908,VALID,0.0,VALID,97.892,VALID,0.051,VALID,19.387,VALID,107.0,VALID,1.114,
2017-08-21, 02:49:07,VALID,914.878,VALID,0.0,VALID,97.888,VALID,0.037,VALID,19.335,VALID,88.0,VALID,0.897,
2017-08-21, 02:50:07,VALID,914.877,VALID,0.0,VALID,97.901,VALID,0.049,VALID,19.285,VALID,78.0,VALID,0.763,
2017-08-21, 02:51:07,VALID,914.9,VALID,0.0,VALID,97.948,VALID,0.039,VALID,19.268,VALID,84.0,VALID,0.937,
2017-08-21, 02:52:07,VALID,914.906,VALID,0.0,VALID,98.151,VALID,0.06,VALID,19.364,VALID,103.0,VALID,1.032,
2017-08-21, 02:53:07,VALID,914.906,VALID,0.0,VALID,98.309,VALID,0.047,VALID,19.524,VALID,125.0,VALID,1.139,
2017-08-21, 02:54:07,VALID,914.907,VALID,0.0,VALID,98.049,VALID,0.034,VALID,19.604,VALID,105.0,VALID,1.05,
2017-08-21, 02:55:07,VALID,914.904,VALID,0.0,VALID,97.034,VALID,0.029,VALID,19.515,VALID,93.0,VALID,0.57,
2017-08-21, 02:56:07,VALID,914.908,VALID,0.0,VALID,96.638,VALID,0.056,VALID,19.528,VALID,102.0,VALID,0.618,
2017-08-21, 02:57:07,VALID,914.912,VALID,0.0,VALID,96.345,VALID,0.042,VALID,19.522,VALID,103.0,VALID,0.432,
2017-08-21, 02:58:07,VALID,914.916,VALID,0.0,VALID,96.117,VALID,0.045,VALID,19.507,VALID,110.0,VALID,0.132,
2017-08-21, 02:59:07,VALID,914.937,VALID,0.0,VALID,96.127,VALID,0.046,VALID,19.504,VALID,96.0,VALID,0.331,
2017-08-21, 03:00:07,VALID,914.93,VALID,0.0,VALID,96.271,VALID,0.046,VALID,19.556,VALID,120.0,VALID,0.476,
2017-08-21, 03:01:07,VALID,914.919,VALID,0.0,VALID,96.049,VALID,0.035,VALID,19.642,VALID,103.0,VALID,0.724,
2017-08-21, 03:02:07,VALID,914.891,VALID,0.0,VALID,95.833,VALID,0.033,VALID,19.871,VALID,132.0,VALID,0.913,
2017-08-21, 03:03:07,VALID,914.874,VALID,0.0,VALID,93.969,VALID,0.038,VALID,20.02,VALID,93.0,VALID,0.709,
2017-08-21, 03:04:07,VALID,914.835,VALID,0.0,VALID,93.99,VALID,0.028,VALID,20.002,VALID,112.0,VALID,0.843,
2017-08-21, 03:05:07,VALID,914.806,VALID,0.0,VALID,93.955,VALID,0.014,VALID,20.071,VALID,100.0,VALID,0.977,
2017-08-21, 03:06:07,VALID,914.78,VALID,0.0,VALID,93.328,VALID,0.034,VALID,20.179,VALID,93.0,VALID,0.833,
2017-08-21, 03:07:07,VALID,914.794,VALID,0.0,VALID,92.679,VALID,0.034,VALID,20.153,VALID,80.0,VALID,1.17,
2017-08-21, 03:08:07,VALID,914.82,VALID,0.0,VALID,92.615,VALID,0.028,VALID,20.11,VALID,83.0,VALID,1.177,
2017-08-21, 03:09:07,VALID,914.823,VALID,0.0,VALID,92.785,VALID,0.029,VALID,20.088,VALID,87.0,VALID,1.086,
2017-08-21, 03:10:07,VALID,914.843,VALID,0.0,VALID,92.556,VALID,0.043,VALID,20.176,VALID,96.0,VALID,0.891,
2017-08-21, 03:11:07,VALID,914.853,VALID,0.0,VALID,91.723,VALID,0.038,VALID,20.328,VALID,100.0,VALID,0.757,
2017-08-21, 03:12:07,VALID,914.843,VALID,0.0,VALID,90.908,VALID,0.037,VALID,20.458,VALID,105.0,VALID,0.487,
2017-08-21, 03:13:07,VALID,914.833,VALID,0.0,VALID,90.309,VALID,0.045,VALID,20.442,VALID,105.0,VALID,0.271,
2017-08-21, 03:14:07,VALID,914.812,VALID,0.0,VALID,90.82,VALID,0.038,VALID,20.316,VALID,107.0,VALID,0.931,
2017-08-21, 03:15:07,VALID,914.782,VALID,0.0,VALID,91.058,VALID,0.034,VALID,20.308,VALID,102.0,VALID,1.354,
2017-08-21, 03:16:07,VALID,914.758,VALID,0.0,VALID,90.776,VALID,0.03,VALID,20.379,VALID,106.0,VALID,1.502,
2017-08-21, 03:17:07,VALID,914.733,VALID,0.0,VALID,90.625,VALID,0.04,VALID,20.393,VALID,112.0,VALID,1.207,
2017-08-21, 03:18:07,VALID,914.698,VALID,0.0,VALID,90.586,VALID,0.045,VALID,20.367,VALID,132.0,VALID,0.832,
2017-08-21, 03:19:07,VALID,914.667,VALID,0.0,VALID,90.786,VALID,0.036,VALID,20.213,VALID,106.0,VALID,0.954,
2017-08-21, 03:20:07,VALID,914.646,VALID,0.0,VALID,92.008,VALID,0.017,VALID,20.035,VALID,104.0,VALID,0.851,
2017-08-21, 03:21:07,VALID,914.63,VALID,0.0,VALID,92.873,VALID,0.039,VALID,19.915,VALID,112.0,VALID,0.887,
2017-08-21, 03:22:07,VALID,914.613,VALID,0.0,VALID,93.121,VALID,0.045,VALID,19.775,VALID,115.0,VALID,0.895,
2017-08-21, 03:23:07,VALID,914.588,VALID,0.0,VALID,93.611,VALID,0.05,VALID,19.654,VALID,136.0,VALID,1.031,
2017-08-21, 03:24:07,VALID,914.576,VALID,0.0,VALID,94.703,VALID,0.039,VALID,19.696,VALID,141.0,VALID,1.062,
2017-08-21, 03:25:07,VALID,914.559,VALID,0.0,VALID,94.355,VALID,0.04,VALID,19.707,VALID,117.0,VALID,0.85,
2017-08-21, 03:26:07,VALID,914.539,VALID,0.0,VALID,94.054,VALID,0.058,VALID,19.653,VALID,111.0,VALID,0.671,
2017-08-21, 03:27:07,VALID,914.544,VALID,0.0,VALID,94.446,VALID,0.053,VALID,19.669,VALID,120.0,VALID,0.892,
2017-08-21, 03:28:07,VALID,914.57,VALID,0.0,VALID,94.333,VALID,0.056,VALID,19.614,VALID,124.0,VALID,1.055,
2017-08-21, 03:29:07,VALID,914.585,VALID,0.0,VALID,94.845,VALID,0.05,VALID,19.572,VALID,132.0,VALID,0.933,
2017-08-21, 03:30:07,VALID,914.61,VALID,0.0,VALID,95.183,VALID,0.062,VALID,19.536,VALID,147.0,VALID,1.454,
2017-08-21, 03:31:07,VALID,914.634,VALID,0.0,VALID,96.133,VALID,0.047,VALID,19.476,VALID,160.0,VALID,1.112,
2017-08-21, 03:32:07,VALID,914.658,VALID,0.0,VALID,96.468,VALID,0.05,VALID,19.36,VALID,172.0,VALID,0.591,
2017-08-21, 03:33:07,VALID,914.681,VALID,0.0,VALID,96.678,VALID,0.04,VALID,19.286,VALID,168.0,VALID,0.555,
2017-08-21, 03:34:07,VALID,914.7,VALID,0.0,VALID,96.964,VALID,0.048,VALID,19.251,VALID,160.0,VALID,0.685,
2017-08-21, 03:35:07,VALID,914.735,VALID,0.0,VALID,97.323,VALID,0.056,VALID,19.282,VALID,162.0,VALID,0.751,
2017-08-21, 03:36:07,VALID,914.745,VALID,0.0,VALID,97.558,VALID,0.047,VALID,19.332,VALID,151.0,VALID,1.062,
2017-08-21, 03:37:07,VALID,914.748,VALID,0.0,VALID,97.603,VALID,0.055,VALID,19.436,VALID,139.0,VALID,1.389,
2017-08-21, 03:38:07,VALID,914.776,VALID,0.0,VALID,97.539,VALID,0.06,VALID,19.585,VALID,137.0,VALID,1.28,
2017-08-21, 03:39:07,VALID,914.802,VALID,0.0,VALID,96.65,VALID,0.059,VALID,19.608,VALID,117.0,VALID,0.994,